Location: Cruquius
(52.3348°N, 4.6319°E)
Time: 08:58:50
(UTC+00:00)

ERS-1 Rocket - Pass Details

Date: 12 May 2021
Orbit: 754 x 757 km, 98.4° (Epoch: 15 June)

Event Time Altitude Azimuth Distance (km) Brightness Sun altitude
Exits shadow 21:30:08 16° 181° (S) 1,899 4.5 -14.1°
Maximum altitude 21:34:06 60° 258° (WSW) 868 3.4 -14.4°
Drops below altitude 10° 21:39:06 10° 339° (NNW) 2,296 6.9 -14.7°
Sets 21:41:27 0° 343° (NNW) 3,226 7.9 -14.9°
